Location: Hains Lake
(37.8540°N, 99.8578°W)
Time: 04:33:42
(UTC+00:00)

Tiros 1 despin weight - Pass Details

Date: 20 April 2021
Orbit: 593 x 642 km, 48.2° (Epoch: 07 May)

Event Time Altitude Azimuth Distance (km) Brightness Sun altitude
Rises 13:32:43 0° 280° (W) 2,900 ? 17.8°
Reaches altitude 10° 13:35:25 10° 294° (WNW) 1,985 ? 18.4°
Maximum altitude 13:39:09 24° 349° (N) 1,268 ? 19.1°
Drops below altitude 10° 13:42:52 10° 44° (NE) 1,961 ? 19.8°
Sets 13:45:30 0° 59° (ENE) 2,856 ? 20.4°
